Simultaneous Nadir Overpasses (SNOs) Predictions

Prediction of SNOs between AQUA and NPP Satellite Orbit:

Table of predicted SNOs for the next 14.0 days since TLE Epoch: 7/29/2023
Index Date (AQUA) Time (AQUA) Lat,Lon (AQUA) SZA (AQUA ) Date (NPP) Time (NPP) Lat,Lon (NPP) SZA (NPP ) Distance(km) Time Diff (sec)
1 07/30/2023 04:08:04 80.70, 28.10 71.93 07/30/2023 04:07:41 80.71, 28.21 71.92 2.21 23
2 07/30/2023 04:57:27 -80.75,-163.58 108.18 07/30/2023 04:58:24 -80.75,-163.73 108.20 2.77 57
3 08/01/2023 17:53:29 -80.67, 1.38 107.40 08/01/2023 17:52:23 -80.67, 1.50 107.37 2.24 66
4 08/01/2023 18:42:51 80.71, 169.55 72.53 08/01/2023 18:43:06 80.71, 169.38 72.55 2.95 15
5 08/04/2023 08:28:14 -80.71, 143.25 106.83 08/04/2023 08:27:46 -80.72, 143.34 106.83 1.72 28
6 08/04/2023 09:17:34 80.80, -47.93 72.99 08/04/2023 09:18:26 80.81, -47.75 72.92 3.23 52
7 08/06/2023 22:13:36 80.67, 116.45 73.93 08/06/2023 22:12:28 80.66, 116.34 73.99 2.07 68
8 08/06/2023 23:02:58 -80.76, -74.83 106.25 08/06/2023 23:03:09 -80.76, -74.85 106.25 0.55 11
9 08/09/2023 12:48:18 80.72,-101.59 74.53 08/09/2023 12:47:49 80.72,-101.57 74.55 0.43 29
10 08/09/2023 13:37:40 -80.81, 67.16 105.64 08/09/2023 13:38:30 -80.81, 67.28 105.70 2.07 50
11 08/12/2023 02:33:40 -80.69,-128.31 104.68 08/12/2023 02:32:31 -80.69,-128.34 104.63 0.40 69



Historial Predications of SNOs between AQUA and NPP
